GEFSSE_con_cape1000_030.txt.gz
Probability
0 42 77 97 100 100 100 100 100 100 100 100 100 100 100 100 100 100 94 90 87 90 97 100 94 97 97 100 100 100 100 100 100 94 94 90 87 94 97 90 81 77 90
0 61 84 97 100 100 100 100 100 100 100 100 100 100 100 100 100 94 87 74 65 68 90 94 97 100 100 100 100 100 100 90 84 81 61 48 48 77 71 61 71 90 94
16 74 68 100 100 100 100 100 100 100 100 100 100 100 100 100 97 84 61 45 35 39 45 58 68 81 81 81 87 90 87 81 81 77 65 13 13 52 42 26 42 94 90
16 71 55 100 100 100 100 100 100 100 100 100 100 100 100 100 97 74 55 32 19 10 6 19 23 26 42 52 58 68 77 77 71 68 23 0 3 68 58 29 39 81 87
52 84 90 100 97 97 100 100 100 100 100 100 100 100 100 100 100 94 87 74 45 19 16 10 3 0 6 10 32 35 39 45 42 16 0 0 3 81 77 61 58 71 81
58 65 94 100 100 97 97 100 100 100 100 100 100 100 100 100 97 90 87 81 74 65 68 58 35 29 19 6 10 3 10 16 6 0 0 6 13 84 84 81 74 81 87
16 29 90 100 100 100 100 100 100 100 100 100 100 100 97 90 87 81 81 84 74 74 71 68 74 74 74 71 58 39 23 3 3 0 0 6 26 77 65 97 100 90 90
13 10 97 100 100 100 100 100 100 100 100 100 100 100 100 97 90 87 90 94 94 90 90 97 100 100 100 100 100 100 97 90 10 0 0 0 29 58 42 81 100 100 100
6 6 87 100 100 100 100 100 100 100 100 100 100 100 100 100 100 100 100 100 100 100 100 100 100 100 100 100 100 100 100 100 90 23 6 32 100 94 77 87 100 100 100
16 13 58 65 100 100 97 100 100 100 100 100 100 100 100 100 100 100 100 100 100 100 100 100 100 100 100 100 100 100 100 100 74 10 42 84 100 97 100 97 100 100 100
52 35 23 32 100 100 87 100 100 100 100 100 100 100 100 100 100 100 100 100 100 100 100 100 100 100 100 100 100 100 100 97 61 58 71 94 100 100 100 100 100 100 100
97 81 77 74 100 100 100 100 100 100 100 100 100 100 100 100 100 100 87 100 100 100 100 100 100 100 100 97 100 100 100 97 81 87 94 100 100 100 100 100 100 100 100
100 100 97 100 100 100 100 100 100 100 100 100 100 100 100 100 100 100 100 100 100 100 100 100 100 100 97 100 100 100 100 94 100 97 97 100 100 100 100 100 100 100 100
100 100 97 100 100 100 100 100 100 100 100 100 100 100 100 100 100 100 100 100 100 100 100 100 100 100 100 100 100 100 100 100 100 100 100 100 100 100 100 100 100 100 100
100 100 100 100 100 100 100 100 100 100 100 100 100 100 100 100 100 100 100 100 100 100 100 100 94 97 97 97 97 90 94 94 97 97 97 97 97 100 100 100 97 100 100
100 100 100 100 100 100 100 100 100 100 100 97 100 100 100 100 100 100 100 100 100 100 100 100 100 97 94 94 90 87 87 84 94 97 84 94 97 94 94 97 97 97 97
100 100 100 100 100 100 100 100 100 97 94 94 94 97 100 100 100 100 100 100 100 100 100 100 100 100 97 94 97 87 87 84 77 87 81 84 81 87 90 94 94 94 97
100 100 100 100 100 100 100 100 97 94 94 90 84 84 84 87 87 97 94 94 100 97 97 100 100 97 97 94 90 87 87 87 90 90 81 87 84 71 84 90 94 94 97
100 100 100 100 100 100 100 100 97 90 87 68 55 45 45 52 48 52 61 61 71 71 71 90 90 97 100 94 90 97 90 84 81 84 84 77 81 84 74 84 90 94 97
100 100 100 100 97 100 90 87 71 68 55 39 23 32 32 23 13 16 13 23 19 26 52 74 87 97 100 97 90 90 90 87 84 84 87 81 77 74 68 74 84 87 94
97 97 100 87 97 97 81 71 61 35 32 13 10 19 16 6 3 23 10 19 29 16 48 48 55 68 84 94 87 87 81 81 77 90 87 84 84 84 77 84 84 84 90
84 90 94 100 90 90 90 84 74 58 23 16 10 26 13 6 6 3 13 13 13 32 48 58 65 61 42 58 77 65 52 55 81 81 94 94 90 94 90 77 87 97 87
71 87 77 94 90 90 87 74 68 74 58 26 13 19 10 6 10 10 10 13 16 13 10 32 45 55 42 48 55 61 35 13 16 45 74 94 97 94 84 74 77 87 87
71 74 87 90 94 97 90 81 61 61 16 13 23 10 10 13 3 3 3 6 13 10 13 16 19 26 45 39 52 71 68 68 48 10 39 77 97 97 87 74 58 65 81
65 71 81 87 94 97 97 97 94 65 29 13 16 16 32 6 3 0 0 3 3 0 6 16 23 26 23 29 35 42 61 90 94 94 13 39 55 77 90 97 90 74 77
65 65 61 87 97 94 94 87 94 71 68 42 39 23 16 6 0 0 0 0 0 0 3 10 13 23 23 32 35 48 52 65 74 87 81 77 48 39 87 97 81 68 71

GEFSSE_con_cape1000_036.txt.gz
Probability
10 23 100 100 100 100 100 100 100 97 94 94 94 97 97 97 100 97 94 94 97 94 94 90 94 97 97 100 97 90 94 87 90 87 90 97 97 94 87 81 90 61 84
19 32 100 100 100 100 100 100 100 100 100 97 97 97 97 94 94 94 90 94 94 97 97 90 87 94 94 97 84 84 74 61 45 42 61 71 81 84 65 87 94 81 77
19 48 100 100 100 100 100 100 100 100 100 100 100 100 100 94 90 90 68 58 68 77 84 87 81 71 68 65 65 61 55 42 39 29 58 35 35 61 52 65 94 87 77
13 29 84 100 100 100 100 100 100 100 100 100 100 100 97 90 90 65 55 48 52 52 48 48 45 35 32 32 42 29 35 35 45 48 81 61 3 42 42 32 65 74 74
6 26 100 100 100 100 100 100 100 100 100 100 100 97 97 90 77 52 32 26 26 19 13 19 16 10 10 10 13 16 13 16 42 48 52 77 29 65 68 29 32 52 55
26 61 100 100 100 100 100 100 100 100 100 100 100 100 100 87 81 68 58 35 19 19 13 6 6 3 10 10 6 6 10 10 13 0 13 23 55 97 94 58 45 61 74
39 87 97 100 100 100 100 100 100 100 100 100 100 100 97 97 90 84 84 84 77 71 71 65 52 55 52 29 13 13 13 3 10 0 0 19 77 97 97 87 77 71 77
65 77 87 100 100 100 100 100 100 100 100 100 100 100 100 100 97 97 97 97 94 87 94 90 94 97 97 94 81 74 74 52 3 0 0 32 94 100 100 100 100 100 97
71 81 81 100 100 100 100 100 100 100 100 100 100 100 100 100 100 100 100 100 100 100 100 100 100 100 100 100 100 100 100 100 97 13 3 58 100 100 100 100 100 100 100
77 87 77 68 100 100 100 100 100 100 100 100 100 100 100 100 100 100 100 100 100 100 100 100 100 100 100 100 100 100 100 100 100 23 3 39 100 100 100 100 100 100 100
68 100 74 84 100 100 100 100 100 100 100 100 100 100 100 100 100 100 100 100 100 100 100 100 100 100 100 100 100 100 100 100 84 52 26 55 100 100 100 100 100 100 100
71 81 90 100 100 100 97 100 100 100 100 100 100 100 100 100 100 100 100 100 100 100 100 100 100 100 100 100 100 100 100 100 84 65 68 100 100 100 100 100 100 100 100
100 84 81 100 100 100 100 100 100 100 100 100 100 100 100 100 100 100 100 100 100 100 100 100 100 97 100 100 100 100 100 94 97 87 84 100 100 100 100 100 100 100 100
100 100 81 100 100 100 100 100 100 100 100 100 100 100 100 100 100 100 100 100 100 100 100 100 97 97 100 97 100 100 100 94 97 97 100 100 100 97 97 97 100 100 100
97 100 100 100 100 100 100 100 100 100 100 100 100 100 100 100 100 100 100 100 100 100 100 100 94 94 97 97 94 94 90 97 94 97 100 100 94 97 94 97 97 100 100
97 97 100 100 100 100 100 100 100 100 100 100 100 97 97 100 100 100 100 100 100 100 97 100 100 100 100 97 94 94 90 94 94 100 100 97 97 97 97 97 97 97 100
97 97 97 100 100 100 100 100 100 100 100 100 100 97 97 97 100 97 94 97 100 100 100 100 100 100 100 100 97 94 87 87 90 94 87 90 97 97 97 97 97 100 100
97 97 97 100 100 100 100 100 100 100 97 97 94 90 90 81 74 87 84 84 90 77 77 90 94 97 97 97 97 97 90 87 90 94 90 87 94 87 90 97 100 100 100
94 97 100 97 97 97 97 97 97 94 97 87 71 77 81 48 45 74 77 77 74 71 77 65 77 84 84 81 84 90 90 90 87 90 97 90 87 87 90 90 100 100 100
90 84 87 90 87 87 87 90 87 90 90 74 65 87 61 45 39 58 55 65 74 71 81 87 87 87 90 81 71 65 87 77 77 81 87 87 90 94 94 81 87 87 94
81 77 84 87 87 90 87 90 90 94 77 65 68 71 42 29 26 39 58 68 65 77 81 68 71 68 71 77 68 52 61 74 84 84 84 81 87 90 84 84 87 81 81
48 61 68 71 77 81 81 87 90 87 65 68 68 81 48 32 35 6 65 55 71 84 74 87 77 77 48 61 65 42 16 26 58 52 94 90 84 84 87 74 84 84 81
48 45 52 65 68 71 77 84 87 90 90 90 87 87 71 52 32 39 35 45 58 65 65 81 65 61 55 45 48 52 26 6 16 23 52 61 87 97 90 87 84 90 84
29 35 48 65 71 74 71 81 87 87 84 90 90 87 77 55 65 48 45 48 65 71 68 52 55 48 42 19 26 58 45 32 16 3 13 23 61 81 90 90 84 84 90
6 26 39 68 77 84 84 81 81 84 87 90 90 87 90 97 94 84 65 61 61 68 65 65 61 58 45 32 19 19 23 29 32 13 0 10 32 61 81 94 97 94 90
6 19 19 42 48 71 71 74 77 74 84 87 94 97 94 97 97 90 71 81 84 71 68 68 65 48 48 42 35 16 19 10 29 19 13 23 29 45 77 87 87 90 87

GEFSSE_con_cape1000_042.txt.gz
Probability
13 97 100 100 100 100 100 100 100 87 87 90 94 97 100 97 100 100 100 100 100 100 100 100 100 100 100 100 100 100 100 100 100 100 97 94 97 97 100 97 94 81 100
6 97 100 100 100 100 100 100 100 90 97 97 97 97 100 97 97 100 100 100 100 100 100 100 100 100 97 97 90 90 94 97 100 100 100 94 94 94 100 97 77 90 94
19 97 100 100 100 100 100 100 100 97 97 97 97 97 100 97 97 97 97 97 100 100 100 100 100 97 90 90 84 74 61 65 74 87 84 55 90 97 97 90 94 97 94
26 97 100 100 100 100 100 100 100 100 100 97 97 94 97 97 97 97 97 94 94 94 94 90 87 81 77 81 71 65 58 48 58 77 23 19 42 100 100 100 97 100 90
42 87 100 100 100 100 100 100 100 100 100 97 97 100 100 97 87 87 84 87 87 81 84 84 77 71 61 71 61 48 39 39 52 55 10 6 3 94 100 100 100 100 97
42 81 100 100 100 100 100 100 100 100 100 97 100 100 97 97 94 87 81 81 74 61 58 55 48 45 45 48 48 45 39 32 19 3 0 0 0 87 97 97 100 97 94
42 94 100 100 100 100 100 100 100 100 100 100 100 100 100 100 90 87 87 84 81 71 65 55 55 52 58 55 48 52 45 29 6 0 0 0 0 87 94 97 97 97 90
58 90 100 100 100 100 100 100 100 100 100 100 100 100 100 100 94 94 90 90 90 87 94 90 81 87 77 74 71 65 58 35 10 0 0 0 0 71 100 97 100 100 100
55 84 100 100 100 100 100 100 100 100 100 100 100 100 100 100 100 100 100 100 100 100 100 100 100 100 100 97 94 94 90 90 48 19 0 0 0 68 97 100 100 100 100
26 71 94 100 100 100 100 100 100 100 100 100 100 100 100 100 100 100 100 100 100 100 100 100 100 100 100 100 100 100 100 100 90 74 45 10 65 94 97 100 100 100 100
16 39 77 97 100 100 100 100 100 100 100 100 100 100 100 100 100 100 100 100 100 100 100 100 100 100 100 100 100 100 100 100 97 94 68 61 100 100 100 100 100 100 100
23 13 52 77 100 100 100 100 100 100 100 100 100 100 100 100 100 100 100 100 100 100 100 100 100 100 100 100 100 100 100 97 97 90 58 97 97 97 97 100 100 100 97
26 3 23 32 58 77 61 71 97 97 97 100 100 100 100 100 100 100 100 100 100 100 100 100 100 97 100 94 94 97 97 100 94 71 71 94 97 90 90 90 97 97 97
32 6 0 10 19 32 26 55 84 94 94 97 97 97 97 97 97 97 87 77 84 97 97 97 97 97 97 94 94 94 90 90 84 71 42 87 84 84 87 90 94 94 97
32 19 10 23 35 42 45 58 71 71 87 94 97 97 94 97 94 87 68 65 55 48 65 74 84 77 81 81 90 87 90 84 87 84 68 81 77 71 71 74 87 90 94
26 23 13 23 35 39 48 68 77 77 84 90 94 94 94 97 94 68 45 48 39 39 32 26 23 29 29 42 52 68 65 68 68 68 68 71 74 74 68 71 81 97 97
16 10 13 26 35 35 45 52 65 77 84 84 90 90 87 87 65 55 32 23 26 35 29 19 23 26 32 29 32 45 48 45 55 61 58 52 52 68 74 77 87 87 97
16 13 10 16 26 35 35 42 58 68 61 65 61 68 61 58 48 26 19 16 16 19 6 10 13 13 13 6 6 6 10 6 23 32 39 42 48 45 68 81 87 84 87
16 10 10 10 13 19 35 42 45 48 42 35 39 23 29 32 32 16 10 3 3 3 3 3 0 0 0 0 0 0 0 0 3 13 16 23 26 29 42 52 87 87 87
6 10 6 6 10 19 23 32 35 32 23 19 10 16 10 10 13 10 3 0 0 0 0 0 0 0 0 0 0 0 0 0 0 3 3 3 6 19 26 39 48 81 94
3 3 3 6 6 13 16 16 19 23 19 13 10 10 10 10 10 3 0 0 0 0 0 0 0 0 0 0 0 0 0 0 0 0 3 3 6 19 23 19 19 39 52
0 3 3 6 6 10 13 16 13 10 3 10 10 10 10 0 0 0 0 0 0 0 0 0 0 0 0 0 0 0 0 0 0 0 0 0 0 6 10 23 19 26 39
0 0 0 0 0 3 0 6 6 3 3 3 10 10 3 3 0 0 0 0 0 0 0 0 0 0 0 0 0 0 0 0 0 0 0 0 0 0 0 3 6 19 19
0 0 0 0 0 0 3 0 3 3 3 0 6 3 3 3 3 0 0 0 0 0 0 0 0 0 0 0 0 0 0 0 0 0 0 0 0 0 0 0 0 6 10
0 0 0 0 0 0 0 3 6 13 13 10 6 6 0 0 0 3 0 0 0 0 0 0 0 0 0 0 0 0 0 0 0 0 0 0 0 0 0 0 0 0 0
0 0 0 0 0 0 0 0 0 3 3 10 6 3 3 0 0 0 0 0 0 0 0 0 0 0 0 0 0 0 0 0 0 0 0 0 0 0 0 0 0 0 0

GEFSSE_con_cape1000_048.txt.gz
Probability
0 71 100 100 97 97 94 94 97 97 100 100 100 100 100 100 100 97 97 100 100 100 97 97 100 100 97 97 100 100 97 97 94 90 94 90 90 90 90 90 84 74 87
0 81 100 100 100 100 94 97 97 97 97 100 100 100 100 100 100 100 100 100 100 100 97 94 90 84 94 94 97 97 100 94 97 97 97 94 94 94 90 90 77 77 94
10 87 100 100 100 100 97 97 97 97 97 97 100 100 100 100 100 100 100 100 100 100 94 87 87 77 77 84 94 94 97 100 97 97 100 90 94 94 90 90 87 97 97
45 94 100 100 100 100 97 100 97 97 97 97 100 100 100 100 100 100 100 100 100 100 97 87 81 58 74 74 71 77 90 97 100 100 77 84 94 100 97 94 90 90 90
68 100 100 100 100 100 100 100 100 100 97 97 100 100 100 100 100 97 97 100 97 97 94 87 81 71 65 65 61 71 71 74 81 84 19 39 58 100 97 97 97 94 94
87 100 100 100 100 100 100 100 100 100 97 100 100 100 100 100 100 97 97 97 97 97 97 94 87 77 74 65 65 61 61 65 68 26 10 10 13 90 100 100 97 97 90
90 100 100 100 100 100 100 100 100 100 100 100 100 100 100 100 100 100 100 100 100 97 97 97 94 94 84 84 74 74 68 61 52 13 6 3 3 39 97 100 100 100 97
97 100 100 100 100 100 100 100 100 100 100 100 100 100 100 100 100 100 100 100 100 100 100 100 100 100 100 97 90 90 84 58 26 10 6 0 0 23 77 100 100 100 100
100 100 100 100 100 100 100 100 100 100 100 100 100 100 100 100 100 100 100 100 100 100 100 100 100 100 100 100 100 100 100 94 52 3 0 0 0 13 77 100 100 100 100
97 100 100 100 97 97 97 97 97 97 97 97 97 100 100 100 100 100 100 100 100 100 100 100 100 100 100 100 100 100 100 100 94 58 45 32 45 61 94 97 100 100 100
94 90 90 84 81 77 77 84 81 90 90 90 94 97 97 97 100 100 100 100 100 100 100 100 100 100 100 100 100 97 100 100 97 94 87 87 87 87 90 97 100 100 100
81 81 77 74 71 71 71 71 74 81 77 84 90 90 97 97 97 97 100 100 100 100 100 100 100 100 100 97 97 97 97 97 100 97 100 100 100 100 100 97 97 97 97
42 68 65 68 65 65 65 61 65 68 71 74 84 84 90 97 97 97 94 97 100 100 100 97 100 97 97 97 97 97 97 97 100 97 97 100 97 97 97 90 94 90 94
16 45 55 52 52 39 39 32 39 48 52 61 74 77 81 84 94 90 90 87 87 84 90 97 97 97 97 97 94 94 90 94 94 97 100 100 97 94 97 90 90 94 90
19 16 29 42 32 32 29 26 26 29 48 52 58 71 77 81 74 87 81 71 68 61 68 68 68 74 77 87 90 90 87 87 87 90 87 94 100 97 100 90 87 84 87
23 23 19 19 26 23 23 23 26 19 26 32 39 52 61 61 65 58 52 42 39 29 19 29 32 39 32 35 42 55 61 65 81 77 84 87 97 100 94 84 87 84 84
16 19 19 16 13 13 13 6 6 10 23 26 35 42 58 61 58 52 35 26 6 3 3 3 3 3 3 6 6 13 26 19 39 48 61 71 71 84 97 94 87 81 81
10 10 13 13 6 3 3 3 3 3 6 23 29 32 39 48 42 32 19 6 0 0 0 0 0 0 0 0 0 0 0 6 16 16 19 26 39 35 61 81 90 97 87
0 0 3 3 0 3 6 6 3 3 6 10 19 23 23 26 23 16 10 3 0 0 0 0 0 0 0 0 0 0 0 0 0 0 3 13 10 16 29 29 58 90 90
0 0 0 0 0 0 3 3 3 3 3 0 3 6 6 10 16 3 3 0 0 0 0 0 0 0 0 0 0 0 0 0 0 0 0 0 6 6 3 10 29 29 65
0 0 0 0 0 0 0 3 6 0 0 0 0 3 0 0 0 0 0 0 0 0 0 0 0 0 0 0 0 0 0 0 0 0 0 0 0 0 3 3 10 16 26
0 0 0 0 0 0 0 0 0 0 0 0 0 0 0 0 0 0 0 0 0 0 0 0 0 0 0 0 0 0 0 0 0 0 0 0 0 0 0 0 0 0 3
0 0 0 0 0 0 0 0 0 0 0 0 0 0 0 0 0 0 0 0 0 0 0 0 0 0 0 0 0 0 0 0 0 0 0 0 0 0 0 0 0 0 0
0 0 0 0 0 0 0 0 0 0 0 0 0 0 0 0 0 0 0 0 0 0 0 0 0 0 0 0 0 0 0 0 0 0 0 0 0 0 0 0 0 0 0
0 0 0 0 0 0 0 0 0 0 0 0 0 0 0 0 0 0 0 0 0 0 0 0 0 0 0 0 0 0 0 0 0 0 0 0 0 0 0 0 0 0 0
0 0 0 0 0 0 0 0 0 0 0 0 0 0 0 0 0 0 0 0 0 0 0 0 0 0 0 0 0 0 0 0 0 0 0 0 0 0 0 0 0 0 0

GEFSSE_con_cape1000_054.txt.gz
Probability
0 90 100 100 100 100 100 100 100 100 100 100 100 100 100 100 100 97 97 94 94 84 84 87 97 94 97 100 97 100 97 97 97 97 97 90 87 90 94 77 71 74 100
3 97 100 100 100 100 100 100 100 100 100 100 100 100 100 100 100 100 97 94 87 81 81 81 90 90 94 90 94 90 94 97 97 97 97 77 84 94 87 61 71 100 100
23 97 100 100 97 100 100 100 100 100 100 100 100 100 100 100 100 97 97 87 77 81 71 65 74 71 74 81 81 81 87 94 94 94 90 65 68 87 87 61 84 97 97
48 100 100 100 100 100 100 100 100 100 100 100 100 100 100 100 100 97 90 90 90 81 68 55 48 48 48 45 65 71 77 90 94 94 84 55 58 74 84 90 84 87 94
84 100 100 100 100 100 100 100 100 97 100 100 100 100 100 100 97 97 97 100 94 87 71 52 48 39 39 39 45 61 71 77 84 84 45 58 87 87 87 90 94 94 94
87 100 100 100 100 100 100 100 97 97 97 94 97 97 97 97 97 97 97 100 94 87 71 55 55 48 42 35 42 45 58 65 58 16 19 45 81 100 94 87 84 94 97
87 97 100 100 100 100 100 100 100 97 97 97 100 100 97 97 97 97 94 97 94 94 90 74 68 61 52 48 35 39 55 61 55 3 3 6 58 94 94 97 90 94 100
61 94 100 100 100 100 100 100 100 100 97 97 97 100 100 100 100 97 100 97 97 94 90 87 90 87 84 77 65 74 77 65 23 10 29 32 84 68 90 100 100 100 97
42 84 100 100 100 100 100 100 100 100 100 100 97 97 100 100 100 100 100 100 100 100 100 97 97 97 97 97 97 97 97 87 23 6 16 55 90 48 58 84 100 100 100
48 81 100 100 100 100 100 100 100 97 97 97 100 100 100 100 100 100 100 100 100 100 100 100 100 100 100 100 100 100 100 94 6 3 13 35 84 58 74 87 100 100 100
68 94 100 100 100 100 94 97 97 97 97 97 97 97 100 94 61 100 100 100 100 100 100 100 100 100 100 100 100 100 100 58 16 3 6 48 94 68 74 100 97 100 100
97 97 100 100 100 100 84 90 90 90 90 90 94 94 94 94 100 61 90 100 100 100 100 100 100 100 100 97 97 97 87 68 45 42 48 97 97 81 84 97 100 100 100
94 97 97 100 100 94 90 84 84 84 84 81 84 94 90 90 90 90 84 100 100 100 100 100 100 100 100 94 94 94 87 71 74 68 81 100 97 94 94 100 100 100 100
100 100 100 100 100 94 87 74 71 68 65 65 71 81 87 90 90 87 94 84 97 100 100 94 97 97 97 97 97 94 94 84 68 81 94 100 100 100 100 100 100 97 97
100 100 97 97 100 90 90 84 61 55 48 48 68 65 77 87 90 87 94 94 84 87 87 94 84 87 94 87 94 94 97 90 84 87 97 100 100 100 100 100 97 100 100
97 97 94 94 90 90 90 90 77 55 58 45 45 48 65 74 84 90 90 87 81 81 84 97 81 81 84 84 74 84 87 90 94 97 97 100 100 97 100 100 100 100 100
97 94 94 87 84 90 84 74 68 48 35 48 45 48 65 68 71 81 84 81 71 77 90 94 84 77 74 52 45 55 58 77 71 81 77 94 94 100 100 97 100 100 100
97 94 94 68 84 90 87 81 71 48 42 39 45 42 48 68 68 74 71 65 71 58 68 77 68 52 35 35 35 42 48 58 52 52 58 68 71 61 81 94 94 90 94
74 84 87 81 77 77 77 77 68 65 52 52 42 42 58 55 58 52 48 48 58 55 42 23 19 26 16 29 23 29 23 19 16 13 13 23 32 45 48 65 77 77 74
61 65 68 58 68 71 65 65 65 55 52 52 42 52 52 55 39 35 32 32 35 39 32 26 39 39 26 16 0 0 6 3 10 10 13 13 13 10 13 23 52 45 61
61 61 65 65 65 71 58 52 45 39 45 45 23 23 23 23 19 29 32 29 35 29 23 13 13 6 19 10 0 0 0 0 0 0 0 0 3 6 6 10 26 29 42
48 55 52 48 42 55 52 61 48 32 29 39 29 16 16 6 16 6 16 23 35 39 26 23 26 16 10 3 0 0 3 0 0 0 0 0 0 0 6 6 16 29 26
39 39 23 42 42 42 42 29 26 35 35 13 10 13 10 13 13 13 10 13 23 23 19 26 26 16 10 6 3 0 0 0 0 0 0 0 0 0 0 3 3 10 13
13 13 23 23 32 32 23 23 19 29 19 16 10 6 10 10 6 3 10 6 10 13 19 6 13 16 19 6 3 3 3 0 0 0 0 0 0 0 0 0 0 3 6
6 6 10 13 19 23 19 23 23 23 13 16 6 3 6 6 3 0 0 3 6 10 13 10 16 16 23 13 6 6 3 3 3 0 0 0 0 0 0 0 0 0 3
0 3 3 10 19 23 16 16 23 19 19 6 3 3 0 0 0 0 0 3 6 6 13 29 32 32 42 23 23 13 16 6 6 3 3 0 0 0 0 0 0 0 0

GEFSSE_con_cape1000_060.txt.gz
Probability
68 48 100 100 100 100 100 100 100 100 100 100 100 97 97 97 97 97 94 94 94 94 90 87 81 77 90 90 94 90 94 97 100 97 97 97 97 100 94 97 100 90 100
81 61 100 100 100 100 100 100 100 100 100 100 100 100 100 100 100 100 97 94 94 90 87 87 87 94 97 97 94 94 94 97 94 94 94 94 90 90 94 94 100 94 100
94 77 100 100 100 100 100 100 100 100 100 100 100 100 100 100 100 100 97 94 90 84 84 94 94 84 87 90 94 87 90 87 87 87 87 61 55 77 94 97 100 100 100
90 77 100 100 100 100 100 100 100 100 100 100 100 100 100 100 100 97 94 94 94 84 74 74 68 71 77 74 81 81 81 81 81 90 94 58 35 68 87 94 97 100 100
97 94 100 100 100 100 100 100 100 100 100 100 100 100 100 100 100 97 90 87 90 94 77 61 52 55 58 58 65 68 71 77 84 94 94 71 65 94 94 87 94 97 97
100 100 100 100 100 100 100 100 100 100 100 100 100 100 100 100 100 97 94 94 94 90 81 68 58 58 45 48 55 61 68 84 84 84 94 87 71 97 94 94 87 90 94
100 100 100 100 100 100 100 100 100 100 100 100 100 100 100 100 100 100 100 97 94 94 94 77 68 68 48 48 48 58 65 77 77 77 65 87 84 97 94 90 90 94 90
100 100 100 100 100 100 100 100 100 100 100 100 100 100 100 100 100 100 97 97 97 97 97 94 81 77 74 65 71 68 74 68 52 58 52 97 90 100 94 90 94 97 100
100 100 100 100 100 100 100 100 100 100 100 100 100 100 100 100 100 100 97 97 97 97 97 97 90 90 90 90 94 87 87 90 77 32 29 100 100 100 100 97 94 94 100
100 100 100 100 100 100 100 100 100 100 100 100 100 100 100 100 100 100 100 100 100 100 100 100 100 100 100 100 100 100 100 100 39 3 10 71 100 100 100 100 100 97 94
100 100 100 100 100 100 100 100 100 100 100 100 100 100 100 100 100 100 100 100 100 100 100 100 100 100 100 100 100 100 100 81 6 3 3 71 100 100 100 100 100 100 100
94 97 100 100 100 100 100 100 100 100 100 97 100 100 100 100 100 90 100 100 97 100 100 100 100 100 100 100 100 100 100 65 23 10 19 90 100 100 100 100 100 100 100
100 97 97 100 100 100 100 100 100 97 100 97 97 97 100 100 100 100 100 100 97 100 100 100 100 100 100 87 84 97 90 55 42 26 45 94 97 97 100 100 100 100 100
100 100 97 100 100 100 100 97 94 94 94 94 100 100 100 100 100 100 97 97 97 97 97 100 100 97 94 90 84 84 77 77 55 55 65 94 94 94 97 100 100 100 100
100 100 100 100 100 100 100 97 97 97 97 97 97 94 97 100 100 100 100 94 94 94 94 90 94 90 90 84 77 74 81 77 65 61 68 84 84 87 94 97 100 100 100
100 100 100 100 100 100 100 100 100 100 100 94 97 97 94 97 100 97 90 90 81 87 84 94 77 68 71 71 68 68 84 81 74 68 58 71 84 84 90 97 97 100 100
100 100 100 100 100 100 100 100 100 100 97 97 97 94 100 100 94 90 87 81 77 77 74 65 55 55 48 52 58 65 65 74 74 77 68 68 58 77 90 97 100 100 100
100 100 100 94 100 100 100 100 100 97 97 94 94 97 94 90 90 90 87 77 81 74 68 61 35 29 26 35 32 42 48 65 81 84 71 65 68 45 71 87 100 100 100
97 100 97 97 97 100 100 100 100 97 97 97 90 97 94 90 84 81 81 74 74 58 61 29 23 29 23 19 13 29 26 35 42 35 52 55 55 61 61 71 90 100 100
94 97 94 97 94 100 97 97 97 97 87 87 81 84 84 84 74 74 68 71 61 55 48 29 26 26 16 13 3 0 6 16 29 23 29 29 32 32 39 35 58 71 90
94 90 90 90 87 94 94 94 84 74 68 71 71 68 61 48 48 61 55 61 58 39 35 19 16 16 13 6 3 6 3 3 10 16 23 6 23 26 26 42 58 48 26
81 84 81 74 71 74 74 77 87 74 61 55 58 61 45 35 35 19 45 35 42 39 29 23 16 10 10 6 0 3 0 0 0 0 3 6 0 3 10 16 39 58 48
45 58 39 65 65 61 65 68 65 74 65 55 55 55 39 29 23 32 23 26 23 29 29 26 16 10 10 10 13 3 3 0 0 0 0 0 3 6 6 6 26 45 35
35 32 58 52 58 61 55 65 48 45 42 42 55 45 26 13 13 10 13 13 13 16 19 16 13 13 10 6 13 19 10 6 3 0 0 6 13 10 6 3 3 19 26
16 26 42 61 61 65 58 55 61 45 35 35 32 29 26 23 16 13 6 13 6 6 10 6 6 16 16 6 6 16 10 23 13 0 0 0 6 10 10 10 10 23 26
16 19 19 52 52 48 42 39 48 42 45 29 23 19 13 16 19 10 6 6 3 3 3 6 10 10 3 6 6 10 13 10 3 0 0 3 3 10 13 16 6 16 13

GEFSSE_con_cape1000_066.txt.gz
Probability
84 100 100 100 100 100 100 100 100 100 100 100 100 100 100 100 100 100 100 100 100 100 100 97 97 100 100 100 100 100 100 100 100 100 100 100 100 100 100 100 100 97 100
87 100 100 100 100 100 100 100 100 100 100 100 100 100 100 100 100 100 100 100 100 100 100 100 97 100 100 100 100 100 100 100 100 100 100 100 100 100 100 100 100 100 100
94 100 100 100 100 100 100 100 100 100 100 100 100 100 100 100 100 100 100 97 100 100 100 100 100 100 100 100 100 100 100 97 100 100 97 77 100 100 100 100 100 100 100
87 100 100 100 100 100 100 100 100 100 100 100 100 100 100 100 100 100 100 97 97 100 100 100 100 97 100 100 100 97 97 97 97 97 32 42 87 100 100 100 100 100 100
90 97 100 100 100 100 100 100 100 100 100 100 100 100 100 100 100 100 100 100 100 100 100 97 94 94 97 97 100 97 97 97 97 84 29 16 74 100 100 100 100 97 100
87 100 100 100 100 100 100 100 100 100 100 100 100 100 100 100 100 100 100 100 100 100 100 97 97 90 94 97 97 94 97 94 90 71 48 13 71 100 100 100 100 100 97
90 100 100 100 100 100 100 100 100 100 100 100 100 100 100 100 100 100 100 100 100 100 100 97 94 90 94 87 87 84 84 84 74 39 13 6 68 100 100 100 100 100 100
90 100 100 100 100 100 100 100 100 100 100 100 100 100 100 100 100 100 100 100 100 100 100 100 97 94 90 90 90 87 87 81 71 42 29 0 71 100 100 100 100 100 100
97 100 100 100 100 100 100 100 100 100 100 100 100 100 100 100 100 100 100 100 100 100 100 100 100 100 97 90 90 90 94 87 71 16 23 3 97 100 100 100 100 100 100
97 100 100 100 100 100 100 100 100 100 100 100 100 100 100 100 100 100 100 100 100 100 100 100 100 100 100 100 100 97 97 94 61 39 3 13 97 97 100 100 100 100 100
97 100 100 100 100 100 100 100 100 100 100 100 100 100 100 100 100 100 100 100 100 100 100 97 97 100 100 100 100 100 100 84 32 16 0 16 100 100 100 100 100 100 100
94 100 97 100 100 100 100 100 100 100 100 100 100 100 100 100 100 100 100 100 100 100 100 97 97 97 97 97 100 100 97 71 29 10 3 19 100 100 100 100 97 100 100
90 97 97 100 97 100 100 100 100 100 100 100 100 100 97 97 94 97 87 90 90 94 94 97 97 97 94 94 90 100 97 87 55 13 3 35 100 100 100 100 100 97 100
94 94 100 100 97 94 90 90 94 90 94 90 87 87 90 90 87 74 65 68 71 77 77 84 84 87 81 84 81 74 77 81 52 16 6 58 100 100 100 100 100 100 100
90 90 97 87 87 81 74 77 74 81 87 87 81 84 84 81 68 55 42 39 58 61 68 65 71 71 65 65 61 55 48 55 45 26 26 58 84 90 94 90 94 94 100
81 84 84 81 71 71 71 65 68 61 61 74 74 74 74 58 48 42 39 35 39 35 32 35 32 29 29 42 42 35 29 26 32 26 23 29 77 87 87 90 87 84 87
77 74 81 77 74 71 58 61 55 55 52 45 48 52 45 48 39 26 23 29 32 32 23 19 13 13 13 10 13 16 10 13 23 29 23 16 29 61 74 65 74 81 84
68 71 77 81 61 61 52 52 45 42 42 26 32 32 39 39 26 16 6 16 16 10 3 10 10 10 6 3 3 3 3 6 10 10 16 13 6 10 42 61 61 74 81
71 74 68 61 48 52 48 39 39 42 35 29 26 29 26 23 13 10 3 6 3 3 3 3 3 6 6 3 0 0 0 0 0 0 3 3 3 6 3 16 65 61 74
65 58 61 48 45 42 35 29 23 23 16 13 16 10 6 10 10 3 0 0 0 0 0 0 0 0 0 0 0 0 0 0 0 0 0 0 3 3 0 0 13 29 68
48 42 45 42 39 35 32 29 26 16 16 10 10 10 6 3 3 0 0 0 0 0 0 0 0 0 0 0 0 0 0 0 0 0 0 0 0 0 0 0 0 0 16
39 32 26 26 23 23 23 19 16 13 10 3 0 0 0 0 0 0 0 0 0 0 0 0 0 0 0 0 0 0 0 0 0 0 0 0 0 0 0 0 0 0 0
39 32 26 19 19 16 16 13 6 6 3 3 3 0 0 0 0 0 0 0 0 0 0 0 0 0 0 0 0 0 0 0 0 0 0 0 0 0 0 0 0 0 0
16 19 6 16 13 10 6 3 0 0 0 0 0 0 0 0 0 0 0 0 0 0 0 0 0 0 0 0 0 0 0 0 0 0 0 0 0 0 0 0 0 0 0
6 10 0 3 3 0 0 0 0 0 0 0 0 0 0 0 0 0 0 0 0 0 0 0 0 0 0 0 0 0 0 0 0 0 0 0 0 0 0 0 0 0 0
0 3 0 0 0 0 0 0 0 0 0 0 0 0 0 0 0 0 0 0 0 0 0 0 0 0 0 0 0 0 0 0 0 0 0 0 0 0 0 0 0 0 0